Weather in Chiang Rai

Thailand     19°54′40″N   99°50′05″E
temp.,
°C
wind,
m/s
gust,
m/s
humid.,
%
clouds,
%
prec.,
mm/h
press.,
hPa
HPBL,
m
22 october, fri
fri2201:00+21wsw1198100 5.2 101218
04:00+20n1199100 8.6 101131
07:00+21ese019977 9.3 101366
10:00+22se129697 1.1 1016348
13:00+24sse249584 6.9 1013594
16:00+24se1392100 2.0 1011406
19:00+21s1298100 5.6 101342
22:00+21s12100100 23.8 101579
23 october, sat
sat2301:00+20sw0099100 25.4 101525
04:00+20ene11100100 0.1 101436
07:00+20sse01100100 0.2 101656
10:00+21se119899 0.7 1018173
13:00+22se239685 3.6 1015519
16:00+22ese129696 1.6 1014278
19:00+20ene0099100 2.2 101632
22:00+20ne009956 0.2 101716
24 october, sun
sun2401:00+19nne019991 0.2 101618
04:00+20ne1110090 0.2 101570
07:00+20ne129996 0.6 1017169
10:00+22ene128874 0.2 1017491
13:00+24se128199 1.5 1014869
16:00+24se118516 1.6 1012569
19:00+21nw11965 3.2 101412
22:00+20wnw119697 0.1 101611
25 october, mon
mon2501:00+20nw109776 0.1 101412
04:00+19sw009887 0.0 101414
07:00+20ese009897 0.4 101529
10:00+21e0196100 0.6 1016195
13:00+25ese117839 1.2 1012692
16:00+25se128133 0.6 1010503
19:00+21wnw1196100 1.5 101211
22:00+20w119710 0.5 101413
26 october, tue
tue2601:00+19wnw119810 1.1 101312
04:00+19nnw119921 0.0 101213
07:00+19nnw009934 0.0 101439
10:00+23se128975 0.3 1015528
13:00+27sse126421 0.9 10111198
16:00+27se12679 0.0 1009862
19:00+21nw11925 0.1 101111
22:00+21wnw11925 0.0 101311